THORAD AGENA D DEB, 5958

Orbit data source: Space-Track

THORAD AGENA D DEB, 5958 is space debris in SSO originally from a launch on Wed, 08 Apr 1970 UTC launched from the Air Force Western Test Range (AFWTR). Debris objects in space refer to the collection of defunct objects orbiting the Earth. Examples of debris include non-operational satellites, rocket bodies, and fragments generated from explosions, collisions, or faulty payload assembly.

Loading next visibility...
Identifier
5958, 1970-025MP
Orbit
SSO
Country
Flag of USUS
Related business
Manufacturer
Unknown
Mission
Spacecraft
Bus & Motor
Unknown
Mass
Unknown
Launch date (UTC)
1970-04-08 (56 years ago)
Launch vehicle
Unknown
Launch site
Air Force Western Test Range (AFWTR)
Object type
Payload
Rocket body
Debris
Shape & HBR
Unknown shape, 0.1 m
Radar Cross Section
Medium (>0.1 m² and <1 m²)

Expand to show TLE details & history
Last TLE update: 2 days ago

TLE from 2 days ago
0 THORAD AGENA D DEB
1  5958U 70025MP  26171.31021627  .00000420  00000-0  57057-3 0  9993
2  5958  99.4937  77.2119 0052484 100.1013  24.3569 13.64594124775632
Epoch: 2026-06-20T07:26Z
TLE epoch observation values (Epoch: 2026-06-20T07:26:42.685Z)
Latitude
54.27404°
Longitude
-109.61933°
Altitude
992.561 km
Speed
7.378 km/s
True Right ascension
18h 02m 20s
True Declination
54° 06' 58"
Sunlit
Object was in daylight at epoch
Visualization orbit readout
Latitude
Unknown
Longitude
Unknown
Altitude
Unknown
Speed
Unknown
Apparent Right ascension
Unknown
Apparent Declination
Unknown
Sunlit
N/A
Visualization observer readout
Local Sidereal Time
23:27:26
Azimuth
Unknown
Elevation
Unknown
Doppler factor
Unknown
Orbital elements
Apogee altitude
1,055.123 km
Perigee altitude
977.505 km
Semi-major axis
7,394.451 km
Eccentricity
0.00525
Inclination
99.4937°
RAAN
77.2119°
Arg. of periapsis
100.1013°
True anomaly
24.60643°
Mean anomaly
24.3569°
Eccentric anomaly
24.48151°
Mean motion
3.41338 °/min
Orbital period
105.47 mins
BSTAR
0.00057057
Loading maneuver chart data...
Computing Atmospheric mass density...

Documentation

Showing up to 5 results
|